Wetbulb
47.14 47.03 47.48 48.96 49.89 50.30 48.51 43.39 35.19 49.13 50.77 36.07 35.78 34.55 37.07 40.26 38.51 40.13 38.13 36.75 35.72 33.55 34.25 33.54 32.63 30.26 33.39 37.21 36.87 33.00 35.68 32.83 26.70 28.19 35.98 37.99 35.77 32.58 32.29 26.52 21.45 24.68 21.76 24.29
46.94 46.78 47.48 48.55 49.63 49.96 44.94 39.25 40.58 49.54 47.53 30.27 32.16 37.95 37.43 38.36 38.10 37.76 36.65 35.46 37.61 37.95 35.78 33.43 35.49 34.91 37.94 38.11 36.18 33.59 35.83 31.58 23.12 23.62 33.19 35.28 32.89 34.32 34.06 33.18 32.06 24.57 18.94 23.91
46.77 46.83 47.16 47.85 49.23 49.76 45.79 39.29 34.79 41.33 41.43 40.50 37.14 35.83 35.17 35.16 40.03 38.26 38.96 37.67 39.52 37.46 36.49 37.90 34.24 35.49 39.13 38.90 37.83 41.18 39.62 34.25 28.84 25.42 29.64 34.09 30.92 33.03 33.45 31.95 27.35 25.91 25.47 28.09
46.60 46.39 46.72 47.81 49.05 49.82 46.02 39.61 35.05 38.28 32.36 34.06 38.10 38.32 36.96 34.59 34.69 38.72 40.11 37.49 37.18 35.94 34.56 34.42 34.86 37.16 36.83 38.95 40.84 40.14 38.39 32.06 33.62 33.89 34.60 34.64 33.81 33.82 33.05 30.82 31.01 25.95 29.14 29.95
46.43 46.13 46.59 47.73 48.88 49.64 45.06 39.12 38.80 41.03 36.74 39.15 37.53 37.91 34.13 34.63 36.53 36.82 36.27 36.01 37.24 36.91 35.77 36.44 33.49 35.67 36.41 35.21 38.18 37.75 39.65 33.15 34.76 31.91 35.68 35.60 32.84 34.99 35.00 33.77 33.58 31.62 31.69 31.01
46.44 45.62 46.85 47.32 48.58 48.85 42.88 45.45 45.20 39.71 37.64 38.31 36.54 36.28 36.64 36.55 38.75 39.40 39.04 38.75 37.95 36.89 38.50 40.98 41.47 41.08 40.65 38.95 38.29 38.41 37.57 34.68 32.91 29.67 35.41 34.99 32.71 34.22 35.45 34.73 35.23 34.09 29.32 34.70
46.24 45.43 45.79 46.94 48.09 48.81 45.40 45.11 43.26 39.02 36.64 37.15 37.45 38.82 38.68 38.87 39.37 37.53 40.75 41.27 38.69 42.34 45.88 45.34 43.47 42.18 41.23 40.62 39.89 40.94 37.04 36.06 34.64 30.91 34.51 27.24 36.43 41.20 39.62 36.25 37.16 37.37 36.93 38.30
46.20 45.78 45.61 46.68 47.86 49.26 45.64 46.42 45.00 42.29 37.81 39.28 38.90 39.77 38.99 40.62 41.63 40.93 40.95 42.82 44.45 46.58 43.79 39.03 36.26 34.59 33.77 36.38 38.34 38.04 39.27 37.76 35.06 32.56 31.15 33.13 35.00 38.48 37.40 34.46 35.25 39.67 39.01 40.31
45.96 46.01 45.50 46.29 47.81 48.74 46.37 46.20 47.97 45.54 39.52 38.56 41.87 39.49 41.18 39.02 38.90 39.54 41.58 45.67 46.79 45.21 40.46 37.30 30.94 26.45 29.46 31.73 33.21 38.88 38.79 39.71 36.64 33.51 29.84 26.25 33.25 36.23 41.58 41.36 35.24 42.26 41.63 41.01
46.00 46.03 45.05 45.97 47.76 48.22 46.43 46.15 50.02 46.16 39.47 42.16 43.07 40.48 40.53 42.99 40.36 37.97 40.05 41.51 42.35 44.41 37.79 35.20 32.41 30.01 36.40 31.86 31.79 35.21 36.30 36.92 33.92 33.77 31.33 32.86 38.18 38.97 40.59 30.32 32.53 39.76 42.67 42.68
45.86 45.45 44.80 45.55 47.46 47.89 46.64 45.58 48.89 47.46 40.77 41.56 44.70 44.75 41.86 42.50 41.85 37.21 39.86 39.56 40.80 39.37 36.12 36.00 33.97 29.39 33.63 30.35 32.39 35.67 34.06 33.51 32.56 33.10 30.87 25.70 39.60 38.14 34.19 36.45 37.34 38.86 38.64 39.21
45.29 44.75 45.64 45.78 47.18 47.60 47.34 45.19 50.14 50.89 44.74 44.32 47.88 48.37 47.10 46.38 45.93 43.28 42.52 40.80 41.13 42.57 38.06 37.60 37.75 31.20 31.66 31.83 28.50 32.49 31.95 35.47 33.28 34.30 33.35 38.82 39.05 39.70 40.81 40.88 39.66 37.33 37.09 37.14
43.98 45.51 46.18 46.73 46.70 47.07 46.46 45.14 47.55 47.07 44.62 43.77 44.00 43.19 47.47 50.37 49.32 50.25 42.09 43.08 44.77 44.11 44.37 41.06 38.56 35.67 34.20 30.71 32.05 30.64 34.82 38.03 36.02 36.21 36.89 38.23 38.45 39.40 39.85 40.07 38.96 38.67 38.36 37.21
44.31 45.74 45.97 46.38 46.63 46.85 46.88 44.42 47.34 47.59 43.82 38.69 40.11 48.27 45.93 48.56 49.77 49.45 49.11 46.94 47.09 46.36 45.78 42.57 40.00 35.16 36.80 33.65 35.05 34.84 36.85 37.88 36.49 36.71 38.41 37.79 39.01 38.64 38.34 38.37 38.88 38.31 37.91 36.85
44.12 44.60 44.95 45.57 46.36 46.65 46.13 45.55 47.61 50.04 45.47 41.05 41.97 46.60 46.87 47.81 48.43 47.83 48.22 46.64 44.61 44.34 43.23 42.27 39.88 41.70 37.78 36.13 35.43 33.89 37.10 38.02 36.32 35.95 41.35 39.45 38.39 39.32 39.09 38.18 37.32 37.25 36.47 35.12
43.83 43.80 44.13 44.74 45.79 46.22 44.41 44.44 49.20 49.82 49.25 43.26 37.77 46.42 45.01 45.07 46.30 45.24 45.44 45.57 45.08 45.24 44.30 43.19 43.21 41.80 41.44 35.94 36.80 40.18 38.92 39.49 41.09 40.77 39.54 39.54 39.55 40.24 40.31 38.48 38.25 37.77 36.49 35.54
43.59 44.15 44.57 44.59 45.35 44.27 40.57 41.88 45.78 47.92 49.45 43.65 37.58 39.51 44.19 45.11 44.79 44.29 43.91 45.19 44.23 44.79 43.94 42.74 42.51 41.67 42.12 39.31 34.47 40.35 39.83 39.27 39.39 39.93 40.39 38.76 39.85 38.70 39.11 38.83 38.23 37.81 35.74 35.20
43.87 44.63 44.96 45.18 45.91 45.32 42.92 46.65 48.33 48.27 46.35 44.79 35.48 36.52 39.96 44.50 42.59 41.43 44.06 42.62 43.63 43.39 42.98 42.16 41.39 40.61 39.94 36.70 39.88 39.52 38.06 37.99 38.04 38.41 39.75 40.60 39.87 39.03 37.48 37.65 37.47 35.17 33.68 33.26
44.39 45.55 45.61 43.80 43.25 41.94 45.88 50.03 49.96 48.79 45.55 38.85 37.14 34.18 33.78 42.78 42.20 42.63 42.38 42.98 39.38 41.12 39.29 40.20 40.36 38.73 35.61 39.14 38.66 38.40 38.09 38.66 36.98 36.72 37.76 38.15 37.88 36.86 36.19 36.14 35.85 33.93 32.68 32.43
44.63 43.73 41.57 38.62 43.54 49.02 49.29 46.80 43.70 40.85 41.43 41.72 38.47 39.68 37.26 39.69 40.05 38.19 39.34 38.61 37.42 33.63 37.87 38.76 36.73 36.88 38.26 39.59 39.69 39.31 38.76 37.84 37.24 36.23 34.38 34.83 34.87 35.55 35.82 35.59 35.41 34.77 33.30 31.80
40.02 36.22 36.05 39.99 44.52 45.62 42.86 37.60 36.73 38.40 35.45 39.38 36.79 38.55 37.85 40.23 37.34 36.95 37.77 34.01 33.88 31.83 31.10 35.25 33.40 32.69 33.19 34.00 35.84 38.05 38.07 37.69 37.76 37.78 38.40 38.79 38.65 36.35 34.62 33.88 33.83 33.52 33.21 32.03
40.08 39.10 41.13 40.66 39.94 37.39 35.21 34.20 34.61 35.40 34.12 37.95 38.57 37.95 38.53 37.92 40.45 38.08 36.72 34.16 33.31 28.39 31.78 32.72 29.51 31.57 31.50 32.85 33.96 35.37 36.33 37.31 37.28 37.10 36.88 36.85 36.48 36.37 35.15 34.25 33.17 31.71 30.87 30.48
40.64 37.53 32.45 34.03 34.21 31.09 32.01 29.23 32.26 32.82 33.58 34.99 35.85 34.62 37.69 38.49 38.26 35.00 34.53 32.53 31.84 30.86 29.42 28.01 27.76 29.29 31.11 31.47 33.39 33.66 34.56 35.64 34.76 34.37 35.15 35.27 34.52 35.15 34.56 32.36 32.04 31.69 30.01 29.24
34.31 31.70 28.86 30.48 30.81 32.29 31.88 31.42 31.35 31.16 33.31 35.12 36.82 34.53 35.27 36.38 34.59 33.71 32.37 31.33 29.75 23.28 23.72 22.04 24.89 26.85 30.09 30.93 31.84 33.43 32.32 32.70 32.48 32.76 33.38 33.06 32.51 31.20 31.47 31.55 31.58 30.11 27.40 26.20
32.64 31.49 27.99 31.04 31.80 31.60 30.81 32.11 32.68 33.99 36.39 35.17 34.64 33.92 34.35 32.70 32.12 30.64 28.69 27.18 25.05 25.36 24.88 24.93 22.56 22.25 24.08 29.35 30.40 30.87 30.74 31.12 31.33 31.96 31.52 31.43 31.26 30.34 29.60 29.92 29.40 28.00 26.67 25.48
32.13 31.68 29.48 30.76 29.47 30.33 31.18 31.96 32.58 34.87 36.43 34.74 34.84 32.26 30.97 31.52 27.57 25.06 21.45 20.69 22.64 28.39 24.19 21.63 16.49 26.59 27.16 28.10 29.73 29.97 30.77 31.09 31.48 32.04 31.99 31.61 30.98 29.19 27.23 27.70 27.31 26.50 25.30 23.60
30.70 28.18 28.86 29.29 28.87 29.65 30.67 32.83 34.76 37.67 34.91 33.38 32.28 30.13 31.51 24.68 18.50 19.46 23.54 23.89 28.00 21.43 23.41 22.31 20.08 22.14 26.79 27.26 28.91 29.61 30.56 30.75 31.42 31.56 30.59 28.86 28.41 27.70 26.79 23.13 22.06 22.54 22.38 21.83
MSLP
1010.81 1009.88 1008.97 1008.09 1007.07 1006.00 1005.24 1005.40 1005.32 1004.38 1004.71 1006.64 1007.30 1006.69 1006.38 1006.62 1007.37 1007.49 1007.75 1007.89 1008.23 1008.78 1009.02 1009.53 1010.09 1010.01 1009.47 1009.31 1010.20 1011.17 1011.10 1011.34 1010.56 1009.18 1007.83 1007.84 1007.87 1008.45 1008.63 1008.53 1008.27 1007.63 1007.01 1003.17
1010.59 1009.70 1008.88 1008.05 1007.15 1006.60 1006.17 1005.52 1004.79 1004.73 1005.06 1006.20 1006.56 1006.27 1006.45 1006.64 1007.22 1007.50 1007.85 1007.97 1008.11 1008.55 1008.95 1009.41 1009.18 1009.15 1008.68 1008.94 1009.58 1009.80 1010.43 1010.62 1009.85 1007.92 1007.42 1007.39 1007.39 1007.11 1007.20 1007.35 1007.49 1006.32 1005.88 1001.88
1010.29 1009.46 1008.81 1008.00 1007.17 1006.66 1006.68 1005.96 1005.13 1004.65 1005.62 1005.60 1005.69 1005.91 1006.34 1006.67 1006.86 1007.34 1007.72 1008.00 1008.18 1008.65 1008.72 1008.85 1008.84 1008.67 1008.28 1008.44 1008.79 1009.11 1009.53 1009.45 1009.01 1008.00 1006.17 1006.26 1006.14 1005.78 1006.03 1006.34 1006.18 1004.64 1003.36 1001.96
1010.05 1009.33 1008.68 1007.99 1007.14 1006.34 1006.05 1005.71 1005.28 1005.06 1005.38 1005.97 1005.66 1005.63 1005.68 1006.39 1006.90 1007.15 1007.54 1007.86 1007.96 1008.19 1008.32 1008.32 1008.23 1008.18 1008.08 1007.92 1008.09 1008.66 1009.12 1008.26 1007.98 1006.22 1005.31 1004.33 1003.95 1004.13 1004.61 1004.90 1004.04 1004.41 1002.06 1001.75
1010.07 1009.38 1008.71 1007.93 1006.87 1005.75 1005.24 1005.14 1004.83 1004.78 1004.70 1005.39 1005.72 1005.49 1005.98 1006.14 1006.51 1006.78 1007.16 1007.34 1007.44 1007.86 1007.85 1007.79 1007.59 1007.56 1007.50 1007.37 1007.67 1008.20 1008.30 1007.43 1006.91 1004.92 1004.01 1003.00 1002.02 1002.16 1002.85 1003.33 1003.41 1003.14 1002.29 1000.98
1010.11 1009.39 1008.77 1008.08 1007.36 1006.64 1006.10 1004.97 1004.97 1005.18 1005.03 1004.96 1005.29 1005.10 1005.62 1005.80 1005.96 1006.30 1006.34 1006.80 1007.19 1007.17 1007.03 1007.17 1007.14 1007.11 1007.10 1007.04 1007.39 1007.43 1007.53 1007.28 1006.55 1003.88 1002.89 1002.03 1001.17 1000.96 1001.43 1001.89 1002.01 1001.62 1001.84 1000.41
1010.00 1009.28 1008.45 1008.04 1007.52 1007.18 1006.75 1005.71 1005.38 1005.06 1004.48 1004.79 1004.45 1004.63 1005.24 1005.38 1005.61 1005.86 1006.06 1006.42 1006.59 1006.31 1006.36 1006.45 1006.43 1006.43 1006.26 1006.31 1006.41 1006.75 1006.70 1006.67 1006.16 1004.05 1002.70 1001.61 1000.50 999.52 999.89 1000.62 1000.74 1000.94 1000.82 1000.65
1009.79 1009.22 1008.46 1007.85 1007.33 1006.61 1006.31 1005.80 1005.33 1004.51 1003.93 1004.06 1004.31 1004.44 1004.84 1005.14 1005.34 1005.57 1005.63 1005.69 1005.92 1006.23 1006.64 1006.37 1006.09 1006.12 1005.94 1004.97 1004.93 1005.17 1005.61 1005.90 1005.18 1003.96 1002.88 1001.57 999.83 1000.03 1000.12 1000.64 1000.04 999.96 999.93 1000.04
1009.28 1008.96 1008.60 1007.67 1007.26 1006.42 1005.80 1004.80 1004.53 1004.19 1003.62 1003.70 1003.47 1004.03 1004.51 1004.79 1005.13 1005.45 1005.33 1005.29 1005.52 1006.10 1006.31 1006.06 1005.81 1005.94 1005.21 1004.58 1004.13 1004.32 1004.75 1005.01 1004.92 1003.97 1002.97 1001.68 1000.39 1000.00 1000.00 1000.09 999.29 998.50 999.51 999.79
1009.15 1008.58 1008.34 1007.83 1007.00 1006.29 1005.69 1004.69 1003.95 1003.86 1003.55 1003.48 1003.38 1003.60 1003.92 1004.27 1004.83 1005.16 1005.32 1005.36 1005.42 1005.40 1005.52 1005.64 1005.53 1005.44 1004.94 1004.57 1004.09 1004.18 1004.36 1004.40 1004.09 1003.78 1003.11 1001.39 1000.44 1000.04 1000.06 1000.23 1000.24 999.01 999.47 999.91
1009.08 1008.75 1008.29 1007.60 1006.94 1006.23 1005.65 1004.55 1003.88 1003.60 1003.50 1003.44 1003.16 1003.21 1003.61 1004.02 1004.41 1004.82 1005.24 1005.39 1004.86 1004.91 1004.94 1005.08 1004.98 1005.06 1004.56 1004.32 1003.79 1003.52 1003.53 1003.57 1003.53 1003.38 1002.86 1001.46 1000.22 1000.42 1000.37 1000.11 999.80 999.91 1000.01 1000.41
1008.99 1008.64 1008.04 1007.47 1006.95 1006.37 1005.78 1004.58 1003.91 1003.57 1003.54 1003.64 1003.35 1003.12 1003.04 1003.16 1003.42 1004.25 1004.75 1004.75 1004.48 1004.04 1004.20 1004.39 1004.41 1004.66 1004.33 1003.95 1003.87 1003.34 1003.30 1002.67 1002.66 1002.57 1001.48 1000.56 1000.32 1000.32 1000.17 1000.05 1000.26 1000.61 1000.88 1001.22
1008.92 1008.36 1007.85 1007.34 1006.87 1006.39 1006.02 1005.13 1004.33 1003.79 1003.71 1003.60 1003.43 1003.09 1003.01 1003.27 1003.36 1003.66 1004.31 1004.31 1004.17 1003.86 1003.68 1003.67 1003.59 1003.81 1003.76 1003.87 1003.56 1003.20 1002.56 1002.25 1002.26 1001.98 1000.87 1000.41 1000.28 1000.45 1000.65 1000.78 1001.09 1001.21 1001.42 1002.03
1008.59 1008.11 1007.66 1007.12 1006.54 1005.89 1005.52 1005.17 1004.27 1003.93 1003.75 1003.65 1003.39 1003.06 1003.12 1003.12 1003.28 1003.57 1003.75 1003.89 1004.04 1003.97 1003.67 1003.44 1003.41 1003.58 1003.16 1003.34 1003.16 1002.92 1002.18 1002.12 1001.84 1001.45 1000.56 1000.38 1000.22 1000.74 1001.28 1001.59 1001.83 1002.15 1002.59 1002.98
1008.39 1007.88 1007.43 1006.86 1006.22 1005.59 1005.09 1004.60 1003.90 1003.71 1003.95 1003.49 1003.22 1003.05 1003.17 1003.26 1003.32 1003.45 1003.54 1003.70 1003.97 1003.76 1003.38 1003.16 1002.98 1002.84 1003.06 1003.00 1002.87 1002.33 1001.58 1001.17 1001.50 1000.61 1000.09 1000.36 1000.90 1001.35 1001.97 1002.29 1002.69 1003.17 1003.26 1004.06
1007.92 1007.51 1007.03 1006.56 1006.08 1005.73 1005.28 1004.21 1003.54 1003.54 1003.49 1003.64 1003.45 1003.15 1003.19 1003.44 1003.50 1003.58 1003.62 1003.72 1003.72 1003.43 1002.86 1002.70 1002.49 1002.34 1002.49 1002.62 1002.20 1000.72 1000.52 1000.37 1000.34 1000.31 1000.24 1000.67 1001.25 1001.95 1002.38 1002.91 1003.34 1003.84 1004.25 1004.89
1007.49 1006.96 1006.38 1005.99 1005.80 1005.76 1005.44 1004.68 1004.09 1003.93 1003.85 1003.75 1003.56 1003.21 1003.06 1003.11 1003.34 1003.48 1003.56 1003.48 1003.34 1003.15 1002.75 1002.44 1002.22 1002.20 1002.18 1002.13 1001.44 1000.26 1000.24 1000.29 1000.29 1000.37 1000.69 1001.41 1001.57 1002.23 1002.96 1003.49 1004.08 1004.64 1005.30 1005.91
1006.79 1006.02 1005.49 1005.26 1005.14 1004.96 1004.59 1003.50 1003.34 1003.85 1003.82 1003.86 1003.77 1003.49 1003.30 1003.02 1003.06 1003.29 1003.31 1003.20 1003.05 1002.80 1002.65 1002.54 1002.42 1002.36 1002.35 1001.60 1000.10 999.95 1000.16 1000.46 1000.73 1000.91 1000.87 1000.88 1001.68 1002.53 1003.58 1004.14 1004.31 1005.41 1006.32 1006.94
1005.79 1004.96 1004.54 1004.65 1004.69 1004.34 1003.36 1003.18 1003.30 1003.55 1004.02 1003.80 1003.85 1003.61 1003.38 1003.16 1003.13 1003.20 1003.29 1003.21 1003.17 1003.10 1002.99 1002.84 1002.87 1002.36 1001.78 1000.01 999.88 999.84 1000.19 1000.51 1001.10 1001.64 1001.80 1002.04 1002.31 1003.23 1004.11 1004.67 1005.22 1005.68 1007.02 1007.71
1005.13 1004.78 1004.61 1004.37 1003.94 1003.41 1003.25 1003.37 1003.69 1003.87 1003.66 1003.81 1003.68 1003.48 1003.54 1003.57 1003.38 1003.47 1003.57 1003.57 1003.56 1003.56 1003.48 1003.28 1003.04 1001.90 1000.16 999.96 999.94 1000.04 1000.15 1000.71 1001.26 1001.79 1002.47 1002.86 1003.38 1003.82 1004.42 1005.18 1005.60 1006.26 1007.20 1008.17
1005.74 1005.57 1005.20 1004.70 1003.75 1003.47 1003.45 1003.66 1003.87 1004.09 1004.08 1003.77 1003.56 1003.40 1003.38 1003.56 1003.53 1003.60 1003.94 1004.06 1004.25 1004.34 1004.22 1004.03 1003.32 1002.15 1000.80 1000.56 1000.47 1000.48 1000.57 1000.93 1001.32 1001.32 1001.40 1002.10 1002.67 1003.64 1004.62 1005.71 1006.40 1007.15 1007.96 1008.85
1006.56 1006.54 1006.01 1005.24 1004.20 1003.82 1003.87 1004.08 1004.23 1004.08 1003.84 1003.41 1003.36 1003.44 1003.36 1003.72 1003.60 1003.78 1004.25 1004.50 1004.76 1004.91 1004.90 1004.79 1003.81 1001.91 1001.45 1001.40 1001.35 1001.25 1001.29 1001.63 1001.89 1002.01 1002.22 1002.78 1003.55 1004.38 1005.29 1006.23 1007.18 1007.99 1008.85 1009.77
1006.29 1006.29 1006.15 1005.52 1004.81 1004.40 1004.08 1004.19 1004.27 1004.22 1003.79 1003.44 1003.40 1003.68 1003.62 1003.95 1003.91 1004.42 1004.60 1004.97 1005.29 1005.36 1005.61 1004.89 1003.36 1002.29 1002.27 1002.23 1002.14 1002.16 1002.16 1002.37 1002.67 1002.99 1003.30 1003.70 1004.48 1005.33 1005.94 1007.00 1008.00 1008.80 1009.76 1010.71
1006.38 1006.25 1005.99 1005.57 1004.83 1004.48 1004.36 1004.35 1004.15 1004.20 1003.96 1003.62 1003.50 1003.90 1003.97 1004.32 1004.58 1004.95 1005.29 1005.71 1005.92 1006.16 1006.22 1004.58 1003.32 1003.02 1002.97 1002.95 1002.87 1002.81 1003.11 1003.22 1003.51 1003.90 1004.31 1004.85 1005.47 1006.41 1007.22 1007.87 1008.72 1009.52 1010.75 1011.86
1006.41 1006.39 1005.92 1005.47 1005.17 1004.98 1004.97 1004.79 1004.69 1004.53 1004.16 1003.91 1003.91 1004.18 1004.26 1004.88 1005.28 1005.57 1006.19 1006.34 1006.13 1005.73 1004.90 1004.18 1003.83 1003.72 1003.65 1003.56 1003.51 1003.61 1003.82 1004.04 1004.34 1004.69 1005.19 1005.92 1006.48 1007.22 1008.25 1009.01 1009.64 1010.44 1011.39 1012.33
1006.64 1006.57 1006.34 1005.94 1005.80 1005.49 1005.26 1005.05 1004.75 1004.43 1004.20 1004.05 1003.92 1004.46 1005.03 1005.25 1005.61 1006.27 1006.06 1006.19 1005.18 1004.39 1004.47 1004.43 1004.42 1004.41 1004.26 1004.13 1004.06 1004.22 1004.43 1004.68 1005.01 1005.41 1005.89 1006.61 1007.28 1008.05 1009.09 1010.01 1010.71 1011.48 1012.16 1013.04
1007.09 1007.16 1007.05 1006.84 1006.54 1006.10 1005.69 1005.21 1004.70 1004.37 1004.28 1004.20 1004.29 1004.72 1005.00 1005.71 1006.19 1006.36 1005.69 1004.85 1004.27 1004.24 1004.65 1004.93 1005.14 1005.04 1004.88 1004.68 1004.62 1004.79 1005.04 1005.39 1005.67 1006.02 1006.72 1007.49 1008.30 1009.01 1009.85 1011.01 1012.27 1012.78 1013.41 1014.16
Wind_Speed
25 25 26 29 29 29 3 0 2 5 14 7 4 4 7 5 5 2 3 3 4 5 6 8 8 8 7 8 9 11 10 4 7 12 12 15 15 15 20 6 5 4 4 16
24 23 25 28 29 22 3 3 2 8 10 5 6 7 4 4 4 3 3 3 3 3 6 3 8 5 6 10 11 13 10 4 6 8 1 5 8 13 14 16 3 14 6 13
24 22 24 26 29 19 5 1 2 5 2 3 7 8 5 5 3 4 4 3 4 3 6 8 3 5 3 8 12 10 12 6 9 12 19 10 8 13 17 16 8 13 19 19
22 22 23 25 28 22 5 3 1 3 7 3 7 4 6 5 5 2 5 5 9 8 4 5 8 11 9 6 7 8 8 8 9 21 26 27 24 12 18 20 26 12 15 19
22 21 22 25 26 28 0 1 3 2 6 9 11 5 6 13 4 8 6 7 6 9 7 6 4 4 4 5 4 8 6 5 5 20 21 19 20 17 17 22 20 23 19 19
21 21 19 23 23 17 3 3 3 1 10 6 6 6 8 7 7 7 5 9 9 10 14 15 15 9 5 6 3 5 4 3 4 13 9 12 5 9 15 14 14 18 16 19
19 20 21 22 23 18 4 3 0 2 5 10 6 10 8 8 10 7 4 10 9 3 1 6 9 12 13 11 13 10 6 4 3 8 8 5 4 5 13 17 12 16 12 14
18 19 21 22 23 20 6 2 3 3 3 6 11 8 12 6 6 9 8 6 4 5 4 3 3 2 4 8 13 12 15 6 4 5 4 7 5 2 4 5 7 16 17 17
19 18 20 22 24 20 9 6 3 4 3 6 4 7 6 4 4 3 4 1 5 6 2 3 3 4 3 3 2 4 9 11 3 3 4 3 3 4 6 3 6 9 15 15
19 19 21 20 23 21 12 4 3 3 3 1 5 4 5 3 3 1 1 2 4 10 6 4 3 4 2 3 2 3 4 3 7 2 3 8 2 3 6 4 4 2 10 13
17 18 20 19 22 21 12 7 5 2 2 1 1 4 5 3 3 3 2 2 4 4 5 4 3 4 7 2 3 4 5 4 3 3 3 4 3 2 3 2 3 2 1 4
17 18 19 18 20 19 19 3 3 2 2 2 1 2 1 4 6 4 4 2 1 3 3 3 3 3 2 3 2 1 4 5 4 7 6 3 2 3 3 4 3 1 3 3
18 19 20 20 20 19 14 4 4 1 1 2 1 4 2 3 4 4 3 3 3 3 1 2 1 4 4 4 5 3 4 3 2 3 3 5 2 1 3 3 3 4 6 9
20 21 21 20 21 20 16 3 4 2 1 1 2 1 1 1 6 7 5 2 1 3 2 2 2 2 3 3 2 3 4 5 3 5 8 6 4 2 3 4 7 10 10 9
19 20 20 21 21 21 11 6 4 2 1 1 2 1 1 2 4 5 3 1 2 3 2 2 3 1 2 1 1 3 5 6 5 6 5 3 1 5 6 6 6 7 12 12
21 22 21 20 20 18 5 2 2 2 0 2 2 1 2 2 3 4 3 3 3 3 2 2 2 1 2 2 3 5 4 3 3 2 3 3 6 6 4 7 7 8 10 10
23 24 21 19 19 6 4 3 2 6 4 1 2 2 1 3 3 2 2 2 2 2 2 2 1 1 2 3 5 4 4 5 4 5 7 4 3 5 7 11 12 13 12 10
26 25 24 21 17 10 6 3 9 4 1 0 1 2 2 1 1 1 2 2 1 2 1 1 1 1 1 5 8 5 3 5 5 3 2 2 11 11 9 10 14 14 11 11
27 23 12 2 3 2 2 4 7 1 1 2 1 2 2 2 0 0 1 0 1 1 1 0 1 2 6 8 6 5 7 5 8 5 7 7 11 12 9 9 11 15 10 10
19 2 2 2 2 7 7 2 2 3 2 0 2 1 2 1 0 0 0 2 1 1 1 2 2 5 6 4 2 1 6 9 10 10 5 7 7 10 11 6 8 11 11 11
4 5 3 4 12 1 1 2 1 2 2 3 3 4 3 1 1 1 1 1 0 1 3 2 3 5 4 4 2 2 4 8 3 2 5 5 10 13 13 11 10 11 12 12
4 4 4 3 2 1 3 3 0 3 4 2 4 3 2 1 1 2 1 0 1 4 3 1 4 5 2 3 4 4 3 6 4 3 8 11 12 11 12 12 12 10 13 13
1 1 2 1 1 2 6 6 3 3 2 2 2 1 2 1 2 3 1 0 2 1 0 5 6 3 2 1 2 4 5 6 7 8 8 13 13 11 13 13 11 13 12 10
2 2 3 3 2 2 1 1 2 1 2 2 3 2 2 1 3 1 2 1 1 2 2 7 4 3 1 2 2 4 4 7 8 9 11 13 14 14 12 12 12 14 13 10
2 1 3 2 2 1 1 2 1 1 2 1 3 2 3 1 3 1 2 0 4 6 6 4 3 3 1 2 3 6 6 7 8 9 12 13 14 14 13 11 12 13 13 13
0 2 2 2 1 1 1 1 2 2 1 1 2 3 2 3 4 3 7 5 7 5 4 3 1 2 2 3 5 6 6 8 10 10 12 13 13 14 14 12 12 11 12 13
2 1 1 1 2 2 2 2 2 1 2 3 2 5 6 3 3 3 5 7 4 3 2 1 2 2 4 5 6 7 8 10 11 12 12 13 13 14 14 15 8 11 11 12
Wind_Direction
327 331 329 334 345 346 7 47 207 154 143 137 196 173 150 115 140 90 112 116 100 157 176 183 206 221 239 168 142 180 210 233 241 236 232 213 221 227 218 236 207 223 200 261
325 331 332 335 341 357 327 329 288 158 172 155 162 161 115 119 126 151 137 102 90 170 176 206 216 200 236 174 168 173 167 227 296 300 198 183 223 216 219 224 287 226 212 258
329 331 332 335 336 348 342 238 255 70 83 320 131 148 143 107 117 131 113 120 148 161 207 212 272 229 263 196 203 178 165 209 221 259 273 268 230 217 210 210 230 229 227 261
330 337 333 336 337 340 308 141 222 233 170 217 154 159 126 122 156 90 149 195 208 221 237 221 232 237 261 256 224 190 190 250 230 253 264 270 259 233 205 206 230 223 249 249
333 338 334 337 345 350 33 229 232 118 152 150 170 166 183 184 145 161 205 224 177 220 224 224 182 249 200 249 96 160 213 279 273 277 270 277 277 222 206 210 226 238 254 272
333 338 334 339 346 355 317 323 152 190 155 157 162 178 165 183 161 210 188 202 230 223 229 233 246 257 264 244 277 201 203 251 288 281 330 305 285 208 202 211 216 218 224 248
334 341 335 339 342 348 303 294 284 319 161 176 191 149 192 184 210 220 204 205 199 201 151 267 238 242 252 259 249 223 230 209 237 287 312 346 323 341 208 211 228 224 233 246
335 340 336 333 340 340 321 258 241 250 127 174 169 162 182 192 198 227 243 189 170 99 259 253 239 212 260 236 222 208 208 225 272 286 300 290 312 334 118 176 262 228 238 248
332 336 342 335 334 341 328 281 197 260 131 197 140 173 160 173 181 188 227 184 175 155 211 197 202 213 255 275 211 124 169 214 247 318 307 322 311 353 139 188 329 189 212 247
334 337 339 328 336 346 334 275 248 248 112 232 135 156 174 133 125 172 262 234 206 182 179 217 184 219 265 240 223 172 161 188 225 273 287 290 245 21 146 49 274 319 183 226
333 340 329 328 338 347 347 279 278 357 77 275 43 157 138 120 143 168 181 261 212 161 176 200 202 191 214 182 270 200 179 168 205 186 245 289 21 90 247 234 290 295 268 187
343 330 325 330 338 345 346 304 320 292 98 173 339 287 162 185 163 147 167 249 252 205 171 204 159 224 180 173 264 85 219 186 186 188 218 254 263 251 282 293 265 235 198 133
332 328 333 330 335 337 345 293 285 341 33 314 32 240 218 134 163 155 190 207 240 274 122 242 242 233 138 166 235 205 247 176 217 7 258 253 290 138 357 353 62 33 88 122
326 329 333 330 331 334 341 300 309 279 123 172 267 102 270 355 166 189 197 161 314 310 246 228 210 224 163 210 219 206 201 139 196 266 284 292 269 100 132 71 76 82 74 90
320 323 324 326 331 334 325 279 253 273 264 357 317 236 153 158 167 182 185 185 218 229 222 213 216 184 133 228 51 249 190 188 172 217 221 157 347 118 133 112 104 101 108 93
325 320 315 316 324 335 307 240 203 223 29 357 323 262 206 132 167 182 195 208 236 251 249 226 226 233 161 182 249 251 204 222 214 254 97 83 106 105 89 110 107 92 94 103
320 311 306 307 307 306 253 316 308 336 326 238 339 292 316 157 149 188 180 196 239 246 237 243 257 164 113 226 225 234 198 255 197 136 126 74 174 135 110 112 106 96 85 87
312 311 304 292 290 287 267 244 241 198 189 110 224 270 300 125 212 207 176 225 245 220 296 273 237 49 241 254 238 245 125 108 88 25 341 114 119 106 109 116 119 105 103 104
318 311 297 269 191 224 246 134 117 174 175 221 167 178 236 17 284 124 211 222 248 351 260 202 276 175 224 230 235 224 182 181 150 81 80 99 113 119 118 130 114 115 116 110
327 327 244 197 161 302 144 114 106 24 296 265 236 157 200 137 76 14 329 21 6 294 336 319 225 253 261 256 232 328 159 139 147 124 107 115 119 142 136 133 114 121 123 116
4 353 330 308 304 236 61 102 151 171 222 204 231 194 152 249 139 173 38 146 337 295 277 288 262 265 259 345 299 1 147 153 181 3 123 134 141 142 132 117 109 114 118 116
294 297 287 279 316 68 153 177 174 218 222 210 168 204 152 145 211 110 13 184 105 250 311 293 259 256 311 353 12 9 126 139 87 96 113 114 118 124 119 118 113 104 111 114
287 150 282 257 266 181 194 171 200 220 217 207 125 79 118 107 48 63 93 151 239 78 248 243 236 268 280 338 11 55 84 97 94 87 91 105 104 106 116 112 107 111 103 105
220 218 262 220 183 258 166 250 181 335 294 173 110 98 113 103 68 138 161 73 29 1 284 242 253 260 84 70 67 108 99 103 103 105 110 110 108 101 99 106 115 113 110 106
250 188 254 242 346 264 230 232 263 253 269 158 90 63 101 70 114 67 112 308 254 218 231 236 248 256 251 105 92 115 112 110 107 114 111 112 113 109 102 102 109 111 114 109
223 251 281 313 302 308 351 331 270 224 250 360 47 116 117 190 147 129 212 149 226 245 221 248 285 206 143 124 119 113 106 108 114 116 118 118 117 114 109 102 102 104 111 111
314 313 339 314 281 270 284 271 259 300 117 217 141 172 210 72 72 263 194 210 224 226 278 281 240 205 162 132 113 108 113 116 120 119 114 112 115 115 110 101 88 95 94 97